User: anonymous   Login
Location: Newark
(42.7133°N, 87.7910°W)
Time: 18:46:44
(UTC+00:00)
Language:

Tiros 1 - Orbit

View from above orbital plane
View from above orbital plane
View from above satellite
View from above satellite

Ground track
Ground track

The orbit data is extracted from the following two-line orbital elements,

1    29U 60002B   20220.56589733 -.00000151 +00000-0 +85749-5 0  9997
2    29 048.3800 067.4013 0023647 091.0564 269.3057 14.74365661226087
Epoch (UTC): 07 August 2020 13:34:53
Eccentricity: 0.0023647
inclination: 48.3800°
perigee height: 630 km
apogee height: 664 km
right ascension of ascending node: 67.4013°
argument of perigee: 91.0564°
revolutions per day: 14.74365661
mean anomaly at epoch: 269.3057°
orbit number at epoch: 22608

The dashed part of the orbit path shows where the satellite is in the earth's shadow,  

DLR